QPF
0.08 0.09 0.09 0.08 0.06 0.05 0.05 0.04 0.03 0.02 0.02 0.01 0.01 0.00 0.00 0.00 0.00 0.00 0.00 0.00 0.00 0.00 0.00 0.00 0.00 0.00 0.00 0.00 0.00 0.00 0.00 0.00 0.00 0.01 0.01 0.01 0.01 0.01 0.01 0.01 0.02 0.02 0.02
0.06 0.05 0.07 0.06 0.05 0.03 0.03 0.03 0.02 0.02 0.01 0.01 0.01 0.00 0.00 0.00 0.00 0.00 0.00 0.00 0.00 0.00 0.00 0.00 0.00 0.00 0.00 0.00 0.00 0.00 0.00 0.00 0.00 0.00 0.00 0.00 0.00 0.00 0.00 0.01 0.01 0.01 0.01
0.05 0.03 0.02 0.03 0.02 0.01 0.01 0.01 0.01 0.01 0.01 0.00 0.00 0.00 0.00 0.00 0.00 0.00 0.00 0.00 0.00 0.00 0.00 0.00 0.00 0.00 0.00 0.00 0.00 0.00 0.00 0.00 0.00 0.00 0.00 0.00 0.00 0.00 0.00 0.00 0.00 0.00 0.00
0.03 0.02 0.01 0.01 0.01 0.01 0.00 0.00 0.00 0.00 0.00 0.00 0.00 0.00 0.00 0.00 0.00 0.00 0.00 0.00 0.00 0.00 0.00 0.00 0.00 0.00 0.00 0.00 0.00 0.00 0.00 0.00 0.00 0.00 0.00 0.00 0.00 0.00 0.00 0.00 0.00 0.00 0.00
0.01 0.00 0.00 0.00 0.00 0.00 0.00 0.00 0.00 0.00 0.00 0.00 0.00 0.00 0.00 0.00 0.00 0.00 0.00 0.00 0.00 0.00 0.00 0.00 0.00 0.00 0.00 0.00 0.00 0.00 0.00 0.00 0.00 0.00 0.00 0.00 0.00 0.00 0.00 0.00 0.00 0.00 0.00
0.00 0.00 0.00 0.00 0.00 0.00 0.00 0.00 0.00 0.00 0.00 0.00 0.00 0.00 0.00 0.00 0.00 0.00 0.00 0.00 0.00 0.00 0.00 0.00 0.00 0.00 0.00 0.00 0.00 0.00 0.00 0.00 0.00 0.00 0.00 0.00 0.00 0.00 0.00 0.00 0.00 0.00 0.00
0.00 0.00 0.00 0.00 0.00 0.00 0.00 0.00 0.00 0.00 0.00 0.00 0.00 0.00 0.00 0.00 0.00 0.00 0.00 0.00 0.00 0.00 0.00 0.00 0.00 0.00 0.00 0.00 0.00 0.00 0.00 0.00 0.00 0.00 0.00 0.00 0.00 0.00 0.00 0.00 0.00 0.00 0.00
0.00 0.00 0.00 0.00 0.00 0.00 0.00 0.00 0.00 0.00 0.00 0.00 0.00 0.00 0.00 0.00 0.00 0.00 0.00 0.00 0.00 0.00 0.00 0.00 0.00 0.00 0.00 0.00 0.00 0.00 0.00 0.00 0.00 0.00 0.00 0.00 0.00 0.00 0.00 0.00 0.00 0.00 0.00
0.00 0.00 0.00 0.00 0.00 0.00 0.00 0.00 0.00 0.00 0.00 0.00 0.00 0.00 0.00 0.00 0.00 0.00 0.00 0.00 0.00 0.00 0.00 0.00 0.00 0.00 0.00 0.00 0.00 0.00 0.00 0.00 0.00 0.00 0.00 0.00 0.00 0.01 0.00 0.00 0.00 0.00 0.00
0.00 0.00 0.00 0.00 0.00 0.00 0.00 0.00 0.00 0.00 0.00 0.00 0.00 0.00 0.00 0.00 0.00 0.00 0.00 0.00 0.00 0.00 0.00 0.00 0.00 0.00 0.00 0.00 0.00 0.00 0.00 0.00 0.00 0.00 0.00 0.00 0.00 0.01 0.01 0.00 0.00 0.00 0.00
0.00 0.00 0.00 0.00 0.00 0.00 0.00 0.00 0.00 0.00 0.00 0.00 0.00 0.00 0.00 0.00 0.00 0.00 0.00 0.00 0.00 0.00 0.00 0.00 0.00 0.00 0.00 0.00 0.00 0.00 0.00 0.00 0.00 0.00 0.00 0.00 0.00 0.00 0.00 0.00 0.00 0.00 0.00
0.00 0.00 0.00 0.00 0.00 0.00 0.00 0.00 0.00 0.00 0.00 0.00 0.00 0.00 0.00 0.00 0.00 0.00 0.00 0.00 0.00 0.00 0.00 0.00 0.00 0.00 0.00 0.00 0.00 0.00 0.00 0.00 0.00 0.00 0.00 0.00 0.00 0.00 0.00 0.00 0.00 0.00 0.00
0.00 0.00 0.00 0.00 0.00 0.00 0.00 0.00 0.00 0.00 0.00 0.00 0.00 0.00 0.00 0.00 0.00 0.00 0.00 0.00 0.00 0.00 0.00 0.00 0.00 0.00 0.00 0.00 0.00 0.00 0.00 0.00 0.00 0.00 0.00 0.00 0.00 0.00 0.00 0.00 0.00 0.00 0.00
0.00 0.00 0.00 0.00 0.00 0.00 0.00 0.00 0.00 0.00 0.00 0.00 0.00 0.00 0.00 0.00 0.00 0.00 0.00 0.00 0.00 0.00 0.00 0.00 0.00 0.00 0.01 0.01 0.01 0.01 0.00 0.00 0.00 0.00 0.00 0.00 0.00 0.00 0.00 0.00 0.00 0.00 0.00
0.01 0.02 0.02 0.01 0.00 0.00 0.00 0.00 0.00 0.00 0.00 0.00 0.00 0.00 0.00 0.00 0.00 0.00 0.00 0.00 0.00 0.00 0.00 0.00 0.00 0.00 0.00 0.00 0.00 0.01 0.01 0.00 0.00 0.00 0.00 0.00 0.00 0.00 0.00 0.00 0.00 0.00 0.00
0.02 0.03 0.02 0.01 0.00 0.00 0.00 0.00 0.00 0.00 0.00 0.00 0.00 0.00 0.00 0.00 0.00 0.00 0.00 0.00 0.00 0.00 0.00 0.00 0.00 0.00 0.00 0.00 0.00 0.00 0.00 0.00 0.00 0.00 0.00 0.00 0.00 0.00 0.00 0.00 0.00 0.00 0.00
0.01 0.00 0.00 0.00 0.00 0.00 0.00 0.00 0.00 0.00 0.00 0.00 0.00 0.00 0.00 0.00 0.00 0.00 0.00 0.00 0.00 0.00 0.00 0.00 0.00 0.00 0.00 0.00 0.00 0.00 0.00 0.00 0.00 0.00 0.00 0.00 0.00 0.00 0.00 0.00 0.00 0.00 0.00
0.00 0.00 0.00 0.00 0.00 0.00 0.00 0.00 0.00 0.00 0.00 0.00 0.00 0.00 0.00 0.00 0.00 0.00 0.00 0.00 0.00 0.00 0.00 0.00 0.00 0.00 0.00 0.00 0.00 0.00 0.00 0.00 0.00 0.00 0.00 0.00 0.00 0.00 0.00 0.00 0.00 0.00 0.00
0.00 0.00 0.00 0.00 0.00 0.00 0.00 0.00 0.00 0.00 0.00 0.00 0.00 0.00 0.00 0.00 0.00 0.00 0.00 0.00 0.00 0.00 0.00 0.00 0.00 0.00 0.00 0.00 0.00 0.00 0.00 0.00 0.00 0.00 0.00 0.00 0.00 0.00 0.00 0.00 0.00 0.00 0.00
0.00 0.00 0.00 0.00 0.00 0.00 0.00 0.00 0.00 0.00 0.00 0.00 0.00 0.00 0.00 0.00 0.00 0.00 0.00 0.00 0.00 0.00 0.00 0.00 0.00 0.00 0.00 0.00 0.00 0.00 0.00 0.00 0.00 0.00 0.00 0.00 0.00 0.00 0.00 0.00 0.00 0.00 0.00
0.00 0.00 0.00 0.00 0.00 0.00 0.00 0.00 0.00 0.00 0.00 0.00 0.00 0.00 0.00 0.00 0.00 0.00 0.00 0.00 0.00 0.00 0.00 0.00 0.00 0.00 0.00 0.00 0.00 0.00 0.00 0.00 0.00 0.00 0.00 0.00 0.00 0.00 0.00 0.00 0.00 0.00 0.00
0.00 0.00 0.00 0.00 0.00 0.00 0.00 0.00 0.00 0.00 0.00 0.00 0.00 0.00 0.00 0.00 0.00 0.00 0.00 0.00 0.00 0.00 0.00 0.00 0.00 0.00 0.00 0.00 0.00 0.00 0.00 0.00 0.00 0.00 0.00 0.00 0.00 0.00 0.00 0.00 0.00 0.00 0.00
0.00 0.00 0.00 0.00 0.00 0.00 0.00 0.00 0.00 0.00 0.00 0.00 0.00 0.00 0.00 0.00 0.00 0.00 0.00 0.00 0.00 0.00 0.00 0.00 0.00 0.00 0.00 0.00 0.00 0.00 0.00 0.00 0.00 0.00 0.00 0.00 0.00 0.00 0.00 0.00 0.00 0.00 0.00
0.00 0.00 0.00 0.00 0.00 0.00 0.00 0.00 0.00 0.00 0.00 0.00 0.00 0.00 0.00 0.00 0.00 0.00 0.00 0.00 0.00 0.00 0.00 0.00 0.00 0.00 0.00 0.00 0.00 0.00 0.00 0.00 0.00 0.00 0.00 0.00 0.00 0.00 0.00 0.00 0.00 0.00 0.00
0.00 0.00 0.00 0.00 0.00 0.00 0.00 0.00 0.00 0.00 0.00 0.00 0.00 0.00 0.00 0.00 0.00 0.00 0.00 0.00 0.00 0.00 0.00 0.00 0.00 0.00 0.00 0.00 0.00 0.00 0.00 0.00 0.00 0.00 0.00 0.00 0.00 0.00 0.00 0.00 0.00 0.00 0.00
0.00 0.00 0.00 0.00 0.00 0.00 0.00 0.00 0.00 0.00 0.00 0.00 0.00 0.00 0.00 0.00 0.00 0.00 0.00 0.00 0.00 0.00 0.00 0.00 0.00 0.00 0.00 0.00 0.00 0.00 0.00 0.00 0.00 0.00 0.00 0.00 0.00 0.00 0.00 0.00 0.00 0.00 0.00
MSLP
1016.61 1017.24 1018.00 1018.83 1019.67 1020.47 1021.18 1021.80 1022.30 1022.72 1023.06 1023.35 1023.62 1023.87 1024.13 1024.40 1024.67 1024.93 1025.18 1025.41 1025.61 1025.79 1025.93 1026.05 1026.14 1026.22 1026.27 1026.31 1026.32 1026.29 1026.22 1026.10 1025.92 1025.66 1025.32 1024.90 1024.41 1023.85 1023.24 1022.61 1021.98 1021.37 1020.80
1017.86 1018.46 1019.17 1019.93 1020.70 1021.44 1022.10 1022.66 1023.14 1023.52 1023.83 1024.10 1024.33 1024.54 1024.75 1024.96 1025.17 1025.37 1025.56 1025.73 1025.88 1026.01 1026.12 1026.21 1026.29 1026.35 1026.39 1026.42 1026.42 1026.40 1026.33 1026.22 1026.04 1025.79 1025.46 1025.05 1024.57 1024.03 1023.43 1022.80 1022.16 1021.53 1020.92
1019.13 1019.68 1020.32 1021.00 1021.69 1022.35 1022.95 1023.47 1023.92 1024.29 1024.59 1024.84 1025.05 1025.24 1025.40 1025.55 1025.69 1025.81 1025.93 1026.02 1026.10 1026.17 1026.24 1026.29 1026.33 1026.37 1026.40 1026.41 1026.40 1026.37 1026.30 1026.18 1026.00 1025.77 1025.46 1025.08 1024.64 1024.13 1023.58 1022.98 1022.37 1021.75 1021.14
1020.36 1020.85 1021.41 1022.00 1022.60 1023.17 1023.71 1024.20 1024.63 1025.00 1025.31 1025.57 1025.78 1025.94 1026.07 1026.17 1026.23 1026.27 1026.30 1026.31 1026.31 1026.31 1026.31 1026.31 1026.31 1026.32 1026.32 1026.30 1026.27 1026.22 1026.13 1026.00 1025.82 1025.59 1025.30 1024.96 1024.57 1024.12 1023.63 1023.11 1022.55 1021.98 1021.40
1021.49 1021.93 1022.40 1022.89 1023.39 1023.89 1024.37 1024.83 1025.25 1025.63 1025.96 1026.23 1026.45 1026.61 1026.71 1026.76 1026.76 1026.72 1026.66 1026.58 1026.49 1026.42 1026.35 1026.29 1026.25 1026.21 1026.18 1026.13 1026.06 1025.97 1025.85 1025.70 1025.50 1025.27 1025.00 1024.70 1024.36 1023.98 1023.57 1023.12 1022.64 1022.14 1021.61
1022.48 1022.86 1023.25 1023.65 1024.07 1024.49 1024.91 1025.34 1025.75 1026.14 1026.49 1026.79 1027.03 1027.19 1027.27 1027.28 1027.22 1027.11 1026.97 1026.81 1026.65 1026.50 1026.36 1026.26 1026.17 1026.08 1026.01 1025.92 1025.81 1025.68 1025.51 1025.32 1025.10 1024.86 1024.60 1024.31 1024.02 1023.70 1023.37 1023.01 1022.62 1022.19 1021.73
1023.31 1023.64 1023.96 1024.28 1024.61 1024.96 1025.34 1025.73 1026.14 1026.53 1026.90 1027.22 1027.46 1027.62 1027.69 1027.67 1027.57 1027.40 1027.20 1026.97 1026.75 1026.54 1026.36 1026.20 1026.07 1025.95 1025.84 1025.71 1025.55 1025.37 1025.16 1024.93 1024.67 1024.41 1024.14 1023.87 1023.60 1023.33 1023.06 1022.77 1022.46 1022.11 1021.72
1023.96 1024.25 1024.52 1024.77 1025.04 1025.33 1025.66 1026.02 1026.41 1026.80 1027.17 1027.50 1027.75 1027.90 1027.96 1027.91 1027.77 1027.57 1027.32 1027.05 1026.79 1026.54 1026.33 1026.15 1025.99 1025.84 1025.69 1025.53 1025.34 1025.12 1024.86 1024.58 1024.29 1023.99 1023.70 1023.42 1023.17 1022.92 1022.69 1022.46 1022.20 1021.92 1021.59
1024.44 1024.71 1024.94 1025.15 1025.36 1025.61 1025.90 1026.24 1026.60 1026.98 1027.34 1027.65 1027.89 1028.03 1028.07 1028.00 1027.85 1027.62 1027.35 1027.06 1026.78 1026.53 1026.30 1026.11 1025.94 1025.78 1025.61 1025.42 1025.20 1024.94 1024.65 1024.33 1024.00 1023.67 1023.35 1023.05 1022.78 1022.54 1022.32 1022.11 1021.89 1021.64 1021.37
1024.76 1025.03 1025.24 1025.43 1025.63 1025.85 1026.11 1026.41 1026.75 1027.09 1027.43 1027.72 1027.93 1028.05 1028.08 1028.00 1027.83 1027.60 1027.33 1027.04 1026.77 1026.52 1026.30 1026.11 1025.94 1025.78 1025.60 1025.40 1025.16 1024.88 1024.56 1024.21 1023.84 1023.47 1023.12 1022.79 1022.50 1022.24 1022.00 1021.78 1021.57 1021.34 1021.09
1024.97 1025.24 1025.46 1025.66 1025.85 1026.06 1026.30 1026.58 1026.88 1027.20 1027.49 1027.75 1027.93 1028.03 1028.03 1027.94 1027.77 1027.55 1027.29 1027.02 1026.77 1026.54 1026.33 1026.16 1026.00 1025.84 1025.67 1025.46 1025.21 1024.92 1024.58 1024.21 1023.82 1023.42 1023.04 1022.67 1022.34 1022.04 1021.77 1021.53 1021.29 1021.06 1020.82
1025.08 1025.38 1025.62 1025.84 1026.04 1026.26 1026.50 1026.76 1027.03 1027.31 1027.57 1027.78 1027.93 1027.99 1027.98 1027.89 1027.72 1027.52 1027.28 1027.04 1026.81 1026.61 1026.43 1026.27 1026.12 1025.97 1025.80 1025.59 1025.34 1025.04 1024.70 1024.32 1023.92 1023.50 1023.08 1022.68 1022.30 1021.96 1021.64 1021.35 1021.08 1020.82 1020.57
1025.15 1025.47 1025.74 1025.99 1026.22 1026.46 1026.70 1026.95 1027.20 1027.44 1027.66 1027.83 1027.94 1027.98 1027.95 1027.86 1027.71 1027.52 1027.31 1027.10 1026.90 1026.72 1026.57 1026.42 1026.28 1026.13 1025.97 1025.76 1025.52 1025.22 1024.88 1024.50 1024.09 1023.67 1023.23 1022.80 1022.38 1021.98 1021.61 1021.27 1020.95 1020.65 1020.37
1025.18 1025.53 1025.83 1026.12 1026.38 1026.64 1026.89 1027.14 1027.37 1027.59 1027.77 1027.90 1027.97 1027.99 1027.95 1027.85 1027.72 1027.56 1027.38 1027.20 1027.03 1026.88 1026.73 1026.60 1026.46 1026.31 1026.15 1025.94 1025.70 1025.42 1025.09 1024.72 1024.32 1023.89 1023.45 1022.99 1022.54 1022.09 1021.67 1021.27 1020.89 1020.54 1020.23
1025.20 1025.56 1025.89 1026.21 1026.50 1026.79 1027.05 1027.30 1027.52 1027.71 1027.85 1027.95 1028.00 1028.00 1027.95 1027.86 1027.74 1027.60 1027.45 1027.31 1027.16 1027.02 1026.89 1026.76 1026.63 1026.48 1026.31 1026.12 1025.88 1025.61 1025.30 1024.96 1024.57 1024.15 1023.70 1023.23 1022.75 1022.27 1021.79 1021.34 1020.90 1020.51 1020.15
1025.20 1025.57 1025.92 1026.26 1026.58 1026.88 1027.15 1027.40 1027.60 1027.77 1027.89 1027.97 1027.99 1027.98 1027.93 1027.84 1027.74 1027.63 1027.51 1027.39 1027.27 1027.15 1027.03 1026.91 1026.77 1026.63 1026.46 1026.27 1026.05 1025.80 1025.52 1025.19 1024.83 1024.42 1023.98 1023.51 1023.01 1022.49 1021.97 1021.46 1020.98 1020.53 1020.12
1025.20 1025.55 1025.91 1026.26 1026.60 1026.91 1027.19 1027.43 1027.62 1027.77 1027.86 1027.92 1027.93 1027.90 1027.85 1027.79 1027.71 1027.62 1027.53 1027.44 1027.34 1027.24 1027.14 1027.02 1026.90 1026.76 1026.60 1026.42 1026.22 1025.99 1025.72 1025.43 1025.08 1024.70 1024.27 1023.79 1023.27 1022.73 1022.18 1021.63 1021.09 1020.60 1020.14
1025.17 1025.52 1025.87 1026.23 1026.56 1026.87 1027.15 1027.38 1027.56 1027.69 1027.77 1027.80 1027.81 1027.78 1027.74 1027.68 1027.63 1027.57 1027.51 1027.45 1027.39 1027.31 1027.23 1027.13 1027.02 1026.89 1026.75 1026.58 1026.40 1026.19 1025.95 1025.67 1025.35 1024.97 1024.55 1024.07 1023.54 1022.98 1022.40 1021.81 1021.24 1020.70 1020.20
1025.13 1025.46 1025.81 1026.15 1026.48 1026.78 1027.05 1027.27 1027.43 1027.55 1027.62 1027.64 1027.64 1027.62 1027.59 1027.56 1027.53 1027.50 1027.48 1027.45 1027.42 1027.38 1027.32 1027.25 1027.16 1027.05 1026.92 1026.78 1026.61 1026.41 1026.19 1025.92 1025.61 1025.24 1024.81 1024.32 1023.78 1023.20 1022.60 1021.98 1021.38 1020.81 1020.29
1025.08 1025.39 1025.72 1026.05 1026.37 1026.66 1026.92 1027.12 1027.28 1027.38 1027.44 1027.47 1027.47 1027.46 1027.45 1027.44 1027.44 1027.45 1027.46 1027.47 1027.48 1027.47 1027.44 1027.40 1027.33 1027.24 1027.13 1026.99 1026.84 1026.65 1026.42 1026.16 1025.84 1025.46 1025.02 1024.52 1023.97 1023.37 1022.75 1022.12 1021.50 1020.92 1020.37
1025.03 1025.32 1025.63 1025.94 1026.25 1026.53 1026.77 1026.97 1027.12 1027.22 1027.28 1027.32 1027.33 1027.33 1027.34 1027.36 1027.39 1027.43 1027.48 1027.52 1027.56 1027.58 1027.59 1027.57 1027.52 1027.45 1027.35 1027.22 1027.06 1026.87 1026.64 1026.35 1026.02 1025.62 1025.16 1024.64 1024.07 1023.46 1022.83 1022.19 1021.57 1020.99 1020.45
1024.98 1025.25 1025.55 1025.84 1026.14 1026.40 1026.64 1026.83 1026.98 1027.09 1027.16 1027.20 1027.23 1027.26 1027.29 1027.34 1027.39 1027.46 1027.54 1027.61 1027.68 1027.73 1027.75 1027.75 1027.72 1027.66 1027.56 1027.43 1027.26 1027.05 1026.79 1026.48 1026.12 1025.69 1025.20 1024.66 1024.08 1023.46 1022.83 1022.20 1021.59 1021.02 1020.49
1024.94 1025.20 1025.47 1025.76 1026.04 1026.29 1026.53 1026.72 1026.87 1026.99 1027.08 1027.14 1027.19 1027.24 1027.30 1027.36 1027.44 1027.53 1027.63 1027.72 1027.80 1027.87 1027.91 1027.92 1027.89 1027.83 1027.72 1027.58 1027.39 1027.15 1026.86 1026.52 1026.12 1025.66 1025.15 1024.59 1023.99 1023.37 1022.75 1022.14 1021.56 1021.01 1020.52
1024.92 1025.15 1025.41 1025.68 1025.95 1026.20 1026.43 1026.63 1026.80 1026.93 1027.03 1027.12 1027.19 1027.26 1027.33 1027.41 1027.51 1027.61 1027.71 1027.81 1027.90 1027.97 1028.02 1028.03 1028.00 1027.93 1027.81 1027.65 1027.43 1027.17 1026.85 1026.47 1026.04 1025.56 1025.03 1024.45 1023.86 1023.25 1022.65 1022.06 1021.51 1021.01 1020.56
1024.89 1025.11 1025.35 1025.61 1025.86 1026.11 1026.35 1026.55 1026.73 1026.88 1027.00 1027.10 1027.19 1027.28 1027.36 1027.46 1027.55 1027.66 1027.76 1027.86 1027.95 1028.01 1028.05 1028.06 1028.02 1027.94 1027.82 1027.64 1027.41 1027.12 1026.78 1026.38 1025.93 1025.43 1024.89 1024.32 1023.74 1023.15 1022.57 1022.02 1021.51 1021.05 1020.64
1024.85 1025.06 1025.29 1025.53 1025.78 1026.02 1026.26 1026.47 1026.66 1026.82 1026.96 1027.07 1027.18 1027.27 1027.36 1027.45 1027.55 1027.64 1027.74 1027.83 1027.91 1027.97 1028.00 1028.01 1027.97 1027.89 1027.76 1027.57 1027.34 1027.05 1026.70 1026.29 1025.84 1025.35 1024.82 1024.26 1023.70 1023.14 1022.59 1022.08 1021.61 1021.18 1020.80
Thickness
5609 5608 5606 5602 5600 5598 5596 5593 5591 5590 5589 5587 5586 5583 5581 5579 5578 5576 5573 5571 5569 5565 5562 5559 5555 5552 5549 5546 5543 5540 5537 5534 5532 5528 5525 5524 5522 5521 5520 5518 5516 5514 5512
5594 5593 5591 5588 5586 5584 5581 5580 5579 5577 5575 5573 5572 5570 5568 5565 5564 5562 5559 5556 5553 5550 5547 5545 5541 5539 5535 5532 5529 5525 5522 5518 5516 5514 5511 5510 5509 5507 5505 5504 5503 5501 5499
5580 5579 5576 5574 5573 5570 5568 5567 5565 5564 5562 5560 5558 5555 5553 5551 5549 5547 5545 5542 5539 5537 5534 5531 5528 5525 5522 5518 5515 5512 5508 5505 5501 5499 5497 5495 5494 5494 5492 5492 5491 5490 5489
5566 5564 5562 5560 5559 5557 5555 5554 5552 5550 5548 5546 5544 5541 5539 5537 5535 5534 5532 5529 5527 5524 5522 5519 5516 5513 5510 5506 5503 5500 5497 5494 5491 5488 5487 5485 5483 5482 5480 5480 5481 5480 5479
5553 5551 5549 5547 5546 5545 5543 5541 5539 5537 5534 5532 5531 5529 5526 5525 5523 5521 5519 5517 5515 5513 5510 5508 5505 5503 5500 5496 5494 5490 5487 5485 5482 5480 5479 5476 5475 5474 5472 5470 5469 5469 5470
5542 5540 5538 5536 5535 5532 5530 5528 5526 5523 5521 5520 5517 5515 5513 5512 5511 5510 5508 5505 5503 5501 5499 5496 5494 5492 5490 5487 5485 5483 5480 5478 5475 5473 5472 5469 5469 5467 5465 5463 5461 5461 5463
5531 5529 5527 5526 5523 5521 5519 5516 5514 5511 5509 5506 5504 5503 5501 5500 5499 5498 5496 5494 5492 5490 5488 5486 5485 5483 5481 5479 5478 5477 5475 5473 5470 5467 5466 5465 5464 5463 5460 5459 5458 5455 5456
5521 5519 5517 5516 5513 5510 5508 5506 5503 5501 5499 5497 5494 5492 5491 5489 5488 5487 5485 5484 5482 5481 5479 5478 5477 5476 5475 5473 5473 5472 5471 5470 5467 5465 5463 5463 5461 5460 5457 5455 5453 5452 5453
5512 5510 5508 5507 5504 5502 5499 5496 5494 5492 5490 5488 5486 5484 5481 5479 5478 5478 5477 5475 5475 5474 5473 5472 5472 5471 5470 5469 5468 5466 5467 5467 5466 5463 5462 5461 5461 5460 5457 5453 5452 5452 5454
5504 5502 5500 5498 5496 5493 5491 5489 5487 5485 5482 5480 5478 5475 5473 5471 5471 5471 5470 5470 5469 5469 5469 5468 5467 5466 5466 5465 5463 5462 5462 5462 5461 5462 5462 5462 5461 5460 5457 5454 5452 5451 5451
5497 5495 5492 5490 5488 5486 5484 5482 5480 5478 5475 5472 5470 5468 5466 5465 5465 5465 5465 5464 5463 5463 5463 5463 5463 5462 5462 5462 5461 5459 5457 5457 5457 5457 5458 5459 5459 5458 5457 5454 5451 5449 5449
5490 5487 5484 5482 5482 5479 5477 5475 5473 5471 5468 5465 5463 5461 5460 5459 5459 5459 5459 5458 5458 5457 5458 5458 5458 5458 5459 5458 5457 5456 5455 5455 5454 5454 5455 5455 5455 5455 5454 5453 5452 5449 5447
5483 5480 5477 5475 5473 5471 5470 5468 5465 5463 5461 5459 5457 5455 5454 5454 5454 5454 5454 5455 5455 5454 5453 5453 5454 5455 5455 5454 5453 5452 5452 5451 5450 5450 5449 5449 5449 5449 5450 5451 5451 5450 5449
5476 5473 5471 5468 5465 5464 5462 5461 5459 5457 5455 5454 5452 5450 5449 5449 5450 5450 5450 5451 5451 5451 5450 5450 5451 5450 5450 5449 5449 5447 5446 5444 5443 5443 5443 5445 5446 5448 5448 5448 5448 5447 5447
5470 5467 5464 5462 5459 5457 5455 5453 5452 5451 5450 5449 5447 5446 5445 5446 5445 5445 5445 5447 5447 5447 5447 5447 5447 5446 5445 5444 5443 5442 5441 5440 5440 5439 5440 5441 5443 5445 5445 5444 5443 5443 5444
5464 5461 5458 5456 5453 5451 5450 5448 5447 5447 5447 5445 5444 5443 5442 5443 5443 5444 5444 5444 5445 5444 5443 5442 5440 5438 5437 5435 5435 5435 5435 5434 5434 5434 5436 5437 5438 5440 5441 5442 5442 5442 5442
5461 5458 5455 5452 5450 5448 5446 5446 5445 5444 5444 5443 5442 5442 5442 5442 5442 5442 5442 5442 5441 5441 5439 5437 5435 5433 5431 5430 5429 5429 5429 5428 5428 5430 5431 5433 5434 5436 5438 5439 5440 5441 5441
5458 5456 5453 5451 5449 5447 5445 5444 5442 5442 5441 5441 5441 5441 5441 5441 5441 5441 5440 5440 5438 5436 5434 5432 5430 5429 5427 5426 5425 5425 5425 5426 5426 5427 5428 5429 5430 5432 5435 5436 5437 5438 5439
5456 5454 5452 5450 5448 5446 5445 5443 5442 5441 5440 5439 5439 5440 5439 5439 5439 5438 5438 5437 5435 5433 5431 5429 5427 5426 5424 5423 5422 5421 5422 5422 5423 5424 5425 5426 5428 5429 5432 5434 5436 5436 5438
5456 5454 5452 5450 5448 5446 5445 5444 5442 5441 5440 5439 5439 5438 5438 5438 5437 5436 5435 5434 5433 5431 5429 5427 5425 5424 5422 5421 5420 5420 5421 5421 5422 5423 5423 5425 5426 5428 5430 5433 5435 5438 5439
5457 5455 5453 5451 5449 5448 5447 5445 5444 5442 5441 5440 5439 5438 5438 5437 5436 5435 5434 5433 5431 5430 5428 5426 5425 5423 5422 5421 5420 5420 5420 5421 5421 5421 5422 5424 5426 5428 5430 5433 5436 5438 5440
5459 5456 5455 5453 5451 5450 5448 5447 5445 5444 5443 5442 5440 5439 5439 5437 5436 5435 5434 5433 5431 5430 5428 5426 5425 5423 5422 5421 5420 5420 5420 5421 5421 5421 5422 5424 5426 5429 5432 5435 5438 5440 5442
5463 5460 5457 5455 5453 5452 5450 5449 5447 5446 5445 5443 5442 5441 5440 5439 5438 5437 5436 5434 5432 5431 5429 5427 5426 5425 5424 5422 5421 5421 5421 5421 5421 5422 5423 5426 5428 5431 5433 5436 5439 5442 5444
5467 5464 5461 5459 5456 5454 5453 5451 5450 5448 5447 5446 5444 5443 5442 5441 5440 5439 5437 5436 5434 5432 5431 5429 5428 5427 5426 5425 5425 5424 5424 5424 5425 5426 5427 5428 5431 5434 5437 5439 5442 5444 5446
5472 5469 5466 5463 5461 5458 5456 5454 5452 5451 5450 5448 5447 5446 5445 5444 5442 5441 5439 5438 5436 5434 5433 5431 5430 5429 5429 5428 5428 5428 5428 5429 5430 5431 5432 5433 5435 5438 5440 5442 5445 5447 5448
5477 5474 5471 5468 5465 5462 5460 5458 5456 5455 5453 5452 5451 5449 5448 5447 5445 5444 5442 5441 5439 5437 5436 5434 5433 5432 5431 5431 5431 5432 5433 5434 5435 5436 5437 5438 5440 5442 5444 5446 5447 5449 5450